Minden, LA

6:26 AM CDT on May 27, 2017 (GMT -0500)
Minden

Weather History for KMNE - October, 2012

Change the Weather History Date:

Tuesday, October 9, 2012

  Actual Average (KBAD) Record (KBAD)
Temperature  
Mean Temperature 58 °F -  
Max Temperature 76 °F 74 °F 93 °F (2015)
Min Temperature 41 °F 54 °F 37 °F (2000)
Degree Days  
Heating Degree Days 7    
Growing Degree Days 8 (Base 50)    
Moisture  
Dew Point 51 °F    
Average Humidity 73    
Maximum Humidity 95    
Minimum Humidity 51    
Precipitation  
Precipitation 0.00 in - - ()
Sea Level Pressure  
Sea Level Pressure 30.07 in    
Wind  
Wind Speed 2 mph ()    
Max Wind Speed 7 mph    
Max Gust Speed -    
Visibility 9.8 miles    
Events      
Averages and records for this station are not official NWS values.
T = Trace of Precipitation, MM = Missing Value Source: Averaged Metar Reports

Daily Weather History Graph

Daily Weather History Graph

Search for Another Location

Airport or City:

Trip Planner

Search our weather history database for the weather conditions in past years. The results will help you decide how hot, cold, wet, or windy it might be!

Date:

Astronomy

Oct. 09, 2012 Rise Set
Actual Time 7:13 AM CDT 6:46 PM CDT
Civil Twilight 6:48 AM CDT 7:11 PM CDT
Nautical Twilight 6:19 AM CDT 7:40 PM CDT
Astronomical Twilight 5:51 AM CDT 8:08 PM CDT
Moon 1:09 AM CDT (10/9) 2:57 PM CDT (10/9)
Length of Visible Light 12h 23m
Length of Day
11h 33m
Last Quarter, 36% of the Moon is Illuminated
Oct 9
Last Quarter
Oct 15
New
Oct 21
First Quarter
Oct 29
Full
Nov 6
Last Quarter

Hourly Weather History & Observations

Time (CDT) Temp. Dew Point Humidity Pressure Visibility Wind Dir Wind Speed Gust Speed Precip Events Conditions
12:15 AM 45.5 °F 43.2 °F 92% 30.15 in 10.0 mi Calm Calm - N/A   Clear
12:35 AM 45.5 °F 43.3 °F 92% 30.14 in 10.0 mi Calm Calm - N/A   Clear
12:55 AM 45.0 °F 42.8 °F 92% 30.13 in 10.0 mi Calm Calm - N/A   Clear
1:15 AM 44.4 °F 42.3 °F 92% 30.13 in 10.0 mi Calm Calm - N/A   Clear
1:35 AM 44.8 °F 43.0 °F 93% 30.13 in 10.0 mi Calm Calm - N/A   Clear
1:55 AM 44.2 °F 42.3 °F 93% 30.13 in 10.0 mi Calm Calm - N/A   Clear
2:15 AM 44.8 °F 43.0 °F 93% 30.13 in 10.0 mi Calm Calm - N/A   Clear
3:15 AM 43.2 °F 41.4 °F 93% 30.13 in 10.0 mi Calm Calm - N/A   Clear
3:35 AM 43.7 °F 41.9 °F 93% 30.12 in 10.0 mi Calm Calm - N/A   Clear
3:55 AM 42.8 °F 40.8 °F 93% 30.12 in 10.0 mi Calm Calm - N/A   Clear
4:15 AM 42.8 °F 41.0 °F 93% 30.12 in 10.0 mi Calm Calm - N/A   Clear
4:35 AM 43.2 °F 41.4 °F 93% 30.12 in 10.0 mi Calm Calm - N/A   Clear
4:55 AM 42.4 °F 40.6 °F 93% 30.12 in 7.0 mi Calm Calm - N/A   Clear
5:15 AM 43.2 °F 41.5 °F 94% 30.12 in 7.0 mi Calm Calm - N/A   Clear
5:35 AM 42.1 °F 40.5 °F 94% 30.12 in 10.0 mi Calm Calm - N/A   Clear
5:55 AM 42.1 °F 40.3 °F 93% 30.13 in 10.0 mi Calm Calm - N/A   Clear
6:15 AM 42.1 °F 40.1 °F 93% 30.13 in 10.0 mi Calm Calm - N/A   Clear
6:35 AM 41.9 °F 40.3 °F 94% 30.13 in 10.0 mi Calm Calm - N/A   Clear
6:55 AM 42.8 °F 41.0 °F 93% 30.13 in 10.0 mi Calm Calm - N/A   Clear
7:15 AM 42.3 °F 40.5 °F 93% 30.14 in 7.0 mi Calm Calm - N/A   Clear
7:35 AM 42.3 °F 40.8 °F 95% 30.14 in 7.0 mi Calm Calm - N/A   Clear
7:55 AM 44.6 °F 42.8 °F 93% 30.14 in 10.0 mi Calm Calm - N/A   Clear
8:15 AM 46.9 °F 44.6 °F 92% 30.14 in 10.0 mi Calm Calm - N/A   Clear
8:35 AM 49.6 °F 45.5 °F 86% 30.14 in 10.0 mi ESE 4.6 mph - N/A   Clear
8:55 AM 52.0 °F 47.3 °F 84% 30.15 in 10.0 mi SE 3.5 mph - N/A   Clear
9:15 AM 54.1 °F 47.5 °F 78% 30.15 in 10.0 mi SSE 3.5 mph - N/A   Clear
9:35 AM 56.1 °F 48.0 °F 74% 30.15 in 10.0 mi SE 3.5 mph - N/A   Clear
9:55 AM 57.6 °F 48.7 °F 72% 30.15 in 10.0 mi SSE 4.6 mph - N/A   Clear
10:15 AM 59.4 °F 48.9 °F 68% 30.15 in 10.0 mi SE 6.9 mph - N/A   Clear
10:35 AM 61.2 °F 49.3 °F 65% 30.14 in 10.0 mi SE 6.9 mph - N/A   Clear
10:55 AM 62.1 °F 49.6 °F 64% 30.13 in 10.0 mi SE 5.8 mph - N/A   Clear
11:15 AM 63.3 °F 50.2 °F 62% 30.13 in 10.0 mi ESE 4.6 mph - N/A   Clear
11:35 AM 64.8 °F 50.5 °F 60% 30.13 in 10.0 mi SSW 4.6 mph - N/A   Clear
11:55 AM 65.8 °F 50.9 °F 58% 30.12 in 10.0 mi South 3.5 mph - N/A   Clear
12:15 PM 67.1 °F 51.3 °F 57% 30.11 in 10.0 mi South 4.6 mph - N/A   Clear
12:35 PM 68.5 °F 51.8 °F 55% 30.09 in 10.0 mi Calm Calm - N/A   Clear
12:55 PM 68.0 °F 52.2 °F 57% 30.08 in 10.0 mi SSW 4.6 mph - N/A   Mostly Cloudy
1:15 PM 69.1 °F 52.9 °F 56% 30.07 in 10.0 mi SE 5.8 mph - N/A   Overcast
1:35 PM 70.5 °F 53.4 °F 55% 30.05 in 10.0 mi Calm Calm - N/A   Scattered Clouds
1:55 PM 71.6 °F 53.6 °F 53% 30.04 in 10.0 mi SSW 4.6 mph - N/A   Clear
2:15 PM 71.6 °F 53.8 °F 53% 30.03 in 10.0 mi SE 3.5 mph - N/A   Scattered Clouds
2:35 PM 72.3 °F 54.5 °F 53% 30.02 in 10.0 mi SSW 3.5 mph - N/A   Mostly Cloudy
2:55 PM 74.7 °F 55.8 °F 52% 30.01 in 10.0 mi SE 3.5 mph - N/A   Mostly Cloudy
3:15 PM 75.0 °F 55.8 °F 51% 30.00 in 10.0 mi South 6.9 mph - N/A   Mostly Cloudy
3:35 PM 75.2 °F 55.9 °F 51% 29.99 in 10.0 mi SE 4.6 mph - N/A   Scattered Clouds
3:55 PM 75.7 °F 56.7 °F 51% 29.98 in 10.0 mi SSE 6.9 mph - N/A   Scattered Clouds
4:15 PM 75.6 °F 56.8 °F 52% 29.98 in 10.0 mi South 5.8 mph - N/A   Mostly Cloudy
4:35 PM 73.8 °F 57.4 °F 56% 29.97 in 10.0 mi South 5.8 mph - N/A   Scattered Clouds
4:55 PM 74.5 °F 58.3 °F 57% 29.96 in 10.0 mi South 3.5 mph - N/A   Clear
5:15 PM 74.7 °F 58.3 °F 57% 29.96 in 10.0 mi South 3.5 mph - N/A   Scattered Clouds
5:35 PM 73.9 °F 58.5 °F 58% 29.96 in 10.0 mi South 4.6 mph - N/A   Mostly Cloudy
5:55 PM 73.8 °F 58.1 °F 58% 29.95 in 10.0 mi SSE 5.8 mph - N/A   Scattered Clouds
6:15 PM 72.3 °F 58.6 °F 62% 29.96 in 10.0 mi South 3.5 mph - N/A   Clear
6:35 PM 71.6 °F 59.0 °F 64% 29.96 in 10.0 mi SSE 3.5 mph - N/A   Mostly Cloudy
6:55 PM 71.1 °F 59.2 °F 66% 29.96 in 10.0 mi SE 3.5 mph - N/A   Overcast
7:15 PM 70.7 °F 59.0 °F 66% 29.96 in 10.0 mi SE 4.6 mph - N/A   Overcast
7:35 PM 70.2 °F 59.4 °F 69% 29.96 in 10.0 mi SE 3.5 mph - N/A   Overcast
7:55 PM 70.2 °F 59.2 °F 68% 29.97 in 10.0 mi SE 3.5 mph - N/A   Overcast
8:15 PM 70.0 °F 59.0 °F 68% 29.97 in 10.0 mi SE 3.5 mph - N/A   Overcast
8:35 PM 70.2 °F 59.0 °F 68% 29.97 in 10.0 mi SE 3.5 mph - N/A   Overcast
8:55 PM 70.2 °F 59.0 °F 68% 29.98 in 10.0 mi SE 5.8 mph - N/A   Overcast
9:15 PM 70.2 °F 59.0 °F 68% 29.99 in 10.0 mi SSE 4.6 mph - N/A   Overcast
9:35 PM 70.3 °F 59.0 °F 67% 29.99 in 10.0 mi SE 5.8 mph - N/A   Overcast
9:55 PM 70.5 °F 59.0 °F 67% 30.01 in 10.0 mi Calm Calm - N/A   Overcast
10:15 PM 70.2 °F 59.4 °F 69% 30.02 in 10.0 mi Calm Calm - N/A   Overcast
10:35 PM 69.8 °F 59.5 °F 70% 30.03 in 10.0 mi Calm Calm - N/A   Overcast
10:55 PM 69.8 °F 59.7 °F 70% 30.03 in 10.0 mi SE 3.5 mph - N/A   Overcast
11:15 PM 68.9 °F 59.9 °F 73% 30.03 in 10.0 mi Calm Calm - N/A   Overcast
11:35 PM 68.4 °F 59.9 °F 74% 30.03 in 10.0 mi SE 3.5 mph - N/A   Overcast
11:55 PM 68.4 °F 59.9 °F 74% 30.04 in 10.0 mi SE 3.5 mph - N/A   Overcast